Location: Avon School (historical)
(37.7514°N, 90.2201°W)
Time: 04:00:17
(UTC+00:00)

Vanguard 2 Rocket - Pass Details

Date: 17 November 2024
Orbit: 554 x 3296 km, 32.9° (Epoch: 03 December)

Event Time Altitude Azimuth Distance (km) Brightness Sun altitude
Rises 11:27:17 0° 228° (SW) 4,759 10.2 -15.2°
Reaches altitude 10° 11:30:02 10° 223° (SW) 4,081 9.9 -14.6°
Maximum altitude 11:41:22 52° 151° (SSE) 2,944 9.7 -12.5°
Drops below altitude 10° 11:59:01 10° 82° (E) 6,147 12.3 -9.1°
Sets 12:04:16 0° 79° (E) 7,267 12.7 -8.1°
